EW9479 Weather Reports


Display with metric or nautical units.
time (UTC)temp
F
wind
direction
speed
MPH
gust
MPH
rain 1hr
in
rain 24hr
in
rain mn
in
humidity
%
barometer
mb
20260509041546 58 198 2.0 3.0 0.00 0.00 0.00 79 1012.7
20260509040047 59 213 3.0 4.0 0.00 0.00 0.00 77 1012.7
20260509034544 60 217 2.0 6.0 0.00 0.00 0.00 76 1012.3
20260509033043 61 200 2.0 5.0 0.00 0.00 0.00 75 1012.3
20260509031601 61 211 4.0 7.0 0.00 0.00 0.00 73 1012.6
20260509030040 62 206 3.0 6.0 0.00 0.00 0.00 72 1012.8
20260509024540 62 193 2.0 4.0 0.00 0.00 0.00 71 1012.9
20260509023044 62 194 3.0 6.0 0.00 0.00 0.00 71 1012.6
20260509021545 62 0 0.0 3.0 0.00 0.00 0.00 70 1012.4
20260509020042 62 153 0.0 1.0 0.00 0.00 0.00 69 1012.4
20260509014540 63 149 0.0 1.0 0.00 0.00 0.00 68 1012.4
20260509013045 64 195 0.0 1.0 0.00 0.00 0.00 66 1012.4
20260509011545 66 165 0.0 3.0 0.00 0.00 0.00 63 1012.0
20260509010045 67 186 0.0 2.0 0.00 0.00 0.00 61 1012.1
20260509004550 69 200 1.0 3.0 0.00 0.00 0.00 59 1011.8
20260509003043 71 203 2.0 5.0 0.00 0.00 0.00 55 1011.8
20260509001542 72 176 2.0 8.0 0.00 0.00 0.00 54 1011.8
20260509000047 73 200 4.0 8.0 0.00 0.00 0.00 52 1011.8
20260508234538 74 137 3.0 8.0 0.00 0.00 0.00 53 1011.9
20260508233044 74 205 2.0 11.0 0.00 0.00 0.00 53 1011.8
20260508231548 74 186 4.0 10.0 0.00 0.00 0.00 52 1011.8
20260508230042 75 180 5.0 11.0 0.00 0.00 0.00 48 1012.0
20260508224542 75 160 5.0 11.0 0.00 0.00 0.00 49 1012.0
20260508223039 75 195 7.0 11.0 0.00 0.00 0.00 45 1012.2
20260508221540 76 230 4.0 10.0 0.00 0.00 0.00 46 1012.3
20260508220042 76 203 4.0 10.0 0.00 0.00 0.00 46 1012.4
20260508214545 76 165 5.0 10.0 0.00 0.00 0.00 47 1012.6
20260508213047 76 193 4.0 13.0 0.00 0.00 0.00 42 1012.6
20260508211540 76 207 5.0 11.0 0.00 0.00 0.00 45 1012.7
20260508210044 76 150 2.0 7.0 0.00 0.00 0.00 49 1012.8
20260508204538 76 274 1.0 6.0 0.00 0.00 0.00 46 1012.9
20260508203050 75 118 2.0 9.0 0.00 0.00 0.00 49 1013.2
20260508201554 75 189 3.0 9.0 0.00 0.00 0.00 47 1013.4
20260508200055 74 175 3.0 7.0 0.00 0.00 0.00 47 1013.4
20260508194540 74 258 4.0 9.0 0.00 0.00 0.00 44 1013.6
20260508193038 74 333 3.0 8.0 0.00 0.00 0.00 47 1013.8
20260508191540 73 215 4.0 8.0 0.00 0.00 0.00 46 1013.8
20260508190051 74 186 2.0 6.0 0.00 0.00 0.00 47 1014.3
20260508184544 73 201 6.0 10.0 0.00 0.00 0.00 47 1014.7
20260508183042 73 84 1.0 5.0 0.00 0.00 0.00 49 1014.9
20260508181605 73 255 3.0 8.0 0.00 0.00 0.00 50 1015.1
20260508180041 72 135 1.0 6.0 0.00 0.00 0.00 48 1015.2
20260508174545 71 212 5.0 8.0 0.00 0.00 0.00 52 1015.5
20260508173048 71 187 0.0 7.0 0.00 0.00 0.00 52 1016.1
20260508171542 70 166 3.0 8.0 0.00 0.00 0.00 52 1016.2
20260508170039 69 88 2.0 8.0 0.00 0.00 0.00 51 1016.4
20260508164542 70 115 4.0 12.0 0.00 0.00 0.00 52 1016.9
20260508163037 69 176 1.0 7.0 0.00 0.00 0.00 53 1017.3
20260508161539 68 78 1.0 9.0 0.00 0.00 0.00 54 1017.3
20260508160043 68 193 3.0 7.0 0.00 0.00 0.00 51 1017.4
20260508154552 67 205 1.0 7.0 0.00 0.00 0.00 54 1017.7
20260508153039 66 102 2.0 7.0 0.00 0.00 0.00 60 1017.9
20260508151538 66 93 1.0 4.0 0.00 0.00 0.00 67 1017.9
20260508150037 65 213 1.0 6.0 0.00 0.00 0.00 64 1018.1
20260508144537 64 207 2.0 6.0 0.00 0.00 0.00 64 1018.2
20260508143042 62 109 1.0 6.0 0.00 0.00 0.00 70 1018.3
20260508141548 62 143 1.0 4.0 0.00 0.00 0.00 71 1018.3
20260508140055 61 127 0.0 4.0 0.00 0.00 0.00 69 1018.5
20260508134544 60 155 1.0 4.0 0.00 0.00 0.00 71 1018.8
20260508133041 58 0 1.0 4.0 0.00 0.00 0.00 76 1018.6
20260508131542 56 0 0.0 2.0 0.00 0.00 0.00 88 1018.8
20260508130043 54 0 0.0 1.0 0.00 0.00 0.00 96 1018.6
20260508124539 50 0 0.0 1.0 0.00 0.00 0.00 96 1018.6
20260508123044 46 0 0.0 0.0 0.00 0.00 0.00 96 1018.6
20260508121545 45 212 0.0 1.0 0.00 0.00 0.00 95 1018.7
20260508120053 44 0 0.0 0.0 0.00 0.00 0.00 95 1018.5
20260508114539 43 0 0.0 0.0 0.00 0.00 0.00 94 1018.2
20260508113039 43 0 0.0 1.0 0.00 0.00 0.00 94 1018.0
20260508111551 43 0 0.0 0.0 0.00 0.00 0.00 94 1017.9
20260508110057 43 0 0.0 0.0 0.00 0.00 0.00 93 1017.7
20260508104543 43 0 0.0 0.0 0.00 0.00 0.00 93 1017.8
20260508103049 43 0 0.0 0.0 0.00 0.00 0.00 93 1017.7
20260508101543 43 0 0.0 0.0 0.00 0.00 0.00 93 1017.8
20260508100045 43 0 0.0 0.0 0.00 0.00 0.00 93 1017.7
20260508094602 44 0 0.0 0.0 0.00 0.00 0.00 93 1017.5
20260508093043 44 0 0.0 1.0 0.00 0.00 0.00 93 1017.4
20260508091543 44 0 0.0 0.0 0.00 0.00 0.00 93 1017.4
20260508090042 45 0 0.0 1.0 0.00 0.00 0.00 92 1017.2
20260508084545 45 214 1.0 1.0 0.00 0.00 0.00 92 1017.1
20260508083055 45 0 0.0 1.0 0.00 0.00 0.00 92 1017.1
20260508081544 46 0 0.0 1.0 0.00 0.00 0.00 92 1017.1
20260508080038 46 153 0.0 0.0 0.00 0.00 0.00 92 1017.1
20260508074539 47 0 0.0 1.0 0.00 0.00 0.00 92 1017.2
20260508073038 47 0 0.0 1.0 0.00 0.00 0.00 92 1017.3
20260508071537 47 0 0.0 0.0 0.00 0.00 0.00 92 1017.3
20260508070040 47 0 0.0 1.0 0.00 0.00 0.00 92 1017.5
20260508064549 48 0 0.0 0.0 0.00 0.00 0.00 92 1017.7
20260508063044 48 134 0.0 1.0 0.00 0.00 0.00 92 1017.9
20260508061544 48 0 0.0 0.0 0.00 0.00 0.00 91 1017.7
20260508060042 48 0 0.0 0.0 0.00 0.00 0.00 91 1017.7
20260508054540 49 0 0.0 0.0 0.00 0.00 0.00 91 1017.9
20260508053038 49 0 0.0 0.0 0.00 0.00 0.00 91 1018.0
20260508051541 49 0 0.0 0.0 0.00 0.00 0.00 91 1018.0
20260508050043 49 0 0.0 1.0 0.00 0.00 0.00 91 1018.0
20260508044543 49 0 0.0 0.0 0.00 0.00 0.00 90 1018.1
20260508043046 50 0 0.0 0.0 0.00 0.00 0.00 90 1018.2